| time (UTC) | temp F | wind direction | speed MPH | gust MPH | rain 1hr in | rain 24hr in | rain mn in | humidity % | barometer mb |
| 20260505084526 | 73 | 147 | 7.0 | 14.0 | 0.00 | 0.00 | 0.00 | 31 | 1013.2 |
| 20260505083545 | 72 | 136 | 8.0 | 15.0 | 0.00 | 0.00 | 0.00 | 32 | 1013.3 |
| 20260505082532 | 71 | 42 | 3.0 | 7.0 | 0.00 | 0.00 | 0.00 | 41 | 1013.4 |
| 20260505081521 | 70 | 117 | 3.0 | 6.0 | 0.00 | 0.00 | 0.00 | 38 | 1013.6 |
| 20260505080533 | 67 | 3 | 3.0 | 7.0 | 0.00 | 0.00 | 0.00 | 43 | 1013.7 |
| 20260505075521 | 66 | 341 | 2.0 | 4.0 | 0.00 | 0.00 | 0.00 | 46 | 1014.1 |
| 20260505074552 | 63 | 349 | 3.0 | 6.0 | 0.00 | 0.00 | 0.00 | 50 | 1014.3 |
| 20260505073532 | 62 | 339 | 2.0 | 4.0 | 0.00 | 0.00 | 0.00 | 56 | 1014.5 |
| 20260505072533 | 60 | 13 | 0.0 | 2.0 | 0.00 | 0.00 | 0.00 | 57 | 1014.8 |
| 20260505071528 | 60 | 342 | 2.0 | 4.0 | 0.00 | 0.00 | 0.00 | 57 | 1014.8 |
| 20260505070529 | 60 | 335 | 2.0 | 3.0 | 0.00 | 0.00 | 0.00 | 55 | 1014.9 |
| 20260505065527 | 59 | 21 | 1.0 | 3.0 | 0.00 | 0.00 | 0.00 | 56 | 1015.1 |
| 20260505064529 | 58 | 12 | 0.0 | 1.0 | 0.00 | 0.00 | 0.00 | 59 | 1015.2 |
| 20260505063523 | 55 | 335 | 2.0 | 4.0 | 0.00 | 0.00 | 0.00 | 63 | 1015.2 |
| 20260505062526 | 56 | 12 | 2.0 | 4.0 | 0.00 | 0.00 | 0.00 | 62 | 1015.4 |
| 20260505061524 | 54 | 330 | 4.0 | 6.0 | 0.00 | 0.00 | 0.00 | 64 | 1015.4 |
| 20260505060526 | 56 | 19 | 2.0 | 3.0 | 0.00 | 0.00 | 0.00 | 67 | 1015.3 |
| 20260505055524 | 56 | 35 | 0.0 | 1.0 | 0.00 | 0.00 | 0.00 | 65 | 1015.4 |
| 20260505054525 | 54 | 6 | 1.0 | 2.0 | 0.00 | 0.00 | 0.00 | 68 | 1015.4 |
| 20260505053521 | 52 | 27 | 0.0 | 1.0 | 0.00 | 0.00 | 0.00 | 70 | 1015.4 |
| 20260505052540 | 52 | 7 | 0.0 | 2.0 | 0.00 | 0.00 | 0.00 | 67 | 1015.5 |
| 20260505051517 | 50 | 242 | 2.0 | 3.0 | 0.00 | 0.00 | 0.00 | 72 | 1015.5 |
| 20260505050521 | 50 | 317 | 1.0 | 1.0 | 0.00 | 0.00 | 0.00 | 70 | 1015.6 |
| 20260505041532 | 49 | 60 | 1.0 | 2.0 | 0.00 | 0.00 | 0.00 | 75 | 1016.0 |
| 20260505040612 | 48 | 283 | 1.0 | 2.0 | 0.00 | 0.00 | 0.00 | 73 | 1016.0 |
| 20260505035518 | 48 | 339 | 1.0 | 2.0 | 0.00 | 0.00 | 0.00 | 75 | 1016.1 |
| 20260505034532 | 49 | 331 | 1.0 | 2.0 | 0.00 | 0.00 | 0.00 | 72 | 1016.0 |
| 20260505033552 | 50 | 196 | 1.0 | 2.0 | 0.00 | 0.00 | 0.00 | 72 | 1016.0 |
| 20260505032532 | 50 | 229 | 1.0 | 3.0 | 0.00 | 0.00 | 0.00 | 71 | 1015.9 |
| 20260505031532 | 50 | 222 | 1.0 | 3.0 | 0.00 | 0.00 | 0.00 | 74 | 1016.0 |
| 20260505030532 | 50 | 351 | 0.0 | 1.0 | 0.00 | 0.00 | 0.00 | 73 | 1016.1 |
| 20260505025533 | 50 | 40 | 1.0 | 2.0 | 0.00 | 0.00 | 0.00 | 72 | 1016.2 |
| 20260505024533 | 52 | 243 | 2.0 | 3.0 | 0.00 | 0.00 | 0.00 | 67 | 1016.1 |
| 20260505023532 | 51 | 325 | 1.0 | 2.0 | 0.00 | 0.00 | 0.00 | 71 | 1016.2 |
| 20260505022605 | 52 | 32 | 0.0 | 1.0 | 0.00 | 0.00 | 0.00 | 71 | 1016.2 |
| 20260505021524 | 52 | 281 | 1.0 | 3.0 | 0.00 | 0.00 | 0.00 | 70 | 1016.4 |
| 20260505020546 | 52 | 218 | 2.0 | 3.0 | 0.00 | 0.00 | 0.00 | 68 | 1016.4 |
| 20260505015527 | 52 | 32 | 0.0 | 1.0 | 0.00 | 0.00 | 0.00 | 69 | 1016.5 |
| 20260505014549 | 53 | 344 | 1.0 | 1.0 | 0.00 | 0.00 | 0.00 | 65 | 1016.4 |
| 20260505013547 | 54 | 278 | 1.0 | 2.0 | 0.00 | 0.00 | 0.00 | 64 | 1016.3 |
| 20260505012532 | 54 | 264 | 0.0 | 2.0 | 0.00 | 0.00 | 0.00 | 66 | 1016.5 |
| 20260505011521 | 56 | 269 | 0.0 | 2.0 | 0.00 | 0.00 | 0.00 | 60 | 1016.6 |
| 20260505010532 | 55 | 258 | 2.0 | 3.0 | 0.00 | 0.00 | 0.00 | 61 | 1016.6 |
| 20260505005521 | 54 | 249 | 1.0 | 2.0 | 0.00 | 0.00 | 0.00 | 66 | 1016.6 |
| 20260505004533 | 54 | 61 | 1.0 | 2.0 | 0.00 | 0.00 | 0.00 | 68 | 1016.7 |
| 20260505003520 | 55 | 285 | 1.0 | 2.0 | 0.00 | 0.00 | 0.00 | 64 | 1016.8 |
| 20260505002551 | 55 | 345 | 0.0 | 1.0 | 0.00 | 0.00 | 0.00 | 65 | 1016.8 |
| 20260505001532 | 56 | 67 | 1.0 | 3.0 | 0.00 | 0.00 | 0.00 | 63 | 1017.0 |
| 20260505000532 | 57 | 215 | 1.0 | 2.0 | 0.00 | 0.00 | 0.00 | 62 | 1017.1 |
| 20260504235532 | 57 | 183 | 1.0 | 3.0 | 0.00 | 0.00 | 0.00 | 63 | 1017.0 |
| 20260504234532 | 58 | 260 | 1.0 | 2.0 | 0.00 | 0.00 | 0.00 | 58 | 1017.0 |
| 20260504233526 | 58 | 0.0 | 0.0 | 0.00 | 0.00 | 0.00 | 59 | 1017.1 | |
| 20260504232528 | 59 | 260 | 1.0 | 1.0 | 0.00 | 0.00 | 0.00 | 57 | 1017.1 |
| 20260504231528 | 59 | 247 | 0.0 | 1.0 | 0.00 | 0.00 | 0.00 | 57 | 1017.1 |
| 20260504230529 | 59 | 103 | 1.0 | 1.0 | 0.00 | 0.00 | 0.00 | 58 | 1017.1 |
| 20260504225524 | 59 | 112 | 1.0 | 1.0 | 0.00 | 0.00 | 0.00 | 56 | 1017.3 |
| 20260504224526 | 60 | 233 | 1.0 | 2.0 | 0.00 | 0.00 | 0.00 | 54 | 1017.4 |
| 20260504223521 | 60 | 167 | 2.0 | 3.0 | 0.00 | 0.00 | 0.00 | 55 | 1017.4 |
| 20260504222522 | 60 | 170 | 0.0 | 1.0 | 0.00 | 0.00 | 0.00 | 53 | 1017.4 |
| 20260504221518 | 61 | 170 | 0.0 | 1.0 | 0.00 | 0.00 | 0.00 | 52 | 1017.5 |
| 20260504220533 | 61 | 170 | 1.0 | 2.0 | 0.00 | 0.00 | 0.00 | 52 | 1017.5 |
| 20260504215531 | 61 | 169 | 1.0 | 2.0 | 0.00 | 0.00 | 0.00 | 52 | 1017.7 |
| 20260504214529 | 61 | 11 | 1.0 | 2.0 | 0.00 | 0.00 | 0.00 | 51 | 1017.8 |
| 20260504213526 | 62 | 329 | 0.0 | 1.0 | 0.00 | 0.00 | 0.00 | 50 | 1017.8 |
| 20260504212533 | 62 | 329 | 1.0 | 1.0 | 0.00 | 0.00 | 0.00 | 46 | 1017.8 |
| 20260504211521 | 62 | 312 | 2.0 | 3.0 | 0.00 | 0.00 | 0.00 | 48 | 1017.9 |
| 20260504210521 | 62 | 295 | 0.0 | 1.0 | 0.00 | 0.00 | 0.00 | 49 | 1017.9 |
| 20260504205518 | 62 | 301 | 0.0 | 1.0 | 0.00 | 0.00 | 0.00 | 51 | 1017.9 |
| 20260504204532 | 64 | 282 | 0.0 | 2.0 | 0.00 | 0.00 | 0.00 | 47 | 1017.9 |
| 20260504203528 | 65 | 198 | 1.0 | 4.0 | 0.00 | 0.00 | 0.00 | 44 | 1017.9 |
| 20260504202528 | 65 | 212 | 0.0 | 1.0 | 0.00 | 0.00 | 0.00 | 45 | 1017.9 |
| 20260504201526 | 65 | 237 | 1.0 | 2.0 | 0.00 | 0.00 | 0.00 | 45 | 1017.8 |
| 20260504200534 | 66 | 181 | 1.0 | 3.0 | 0.00 | 0.00 | 0.00 | 44 | 1017.7 |
| 20260504195520 | 66 | 135 | 1.0 | 1.0 | 0.00 | 0.00 | 0.00 | 43 | 1017.6 |
| 20260504194613 | 67 | 158 | 3.0 | 6.0 | 0.00 | 0.00 | 0.00 | 42 | 1017.6 |
| 20260504193521 | 67 | 160 | 1.0 | 3.0 | 0.00 | 0.00 | 0.00 | 42 | 1017.7 |
| 20260504192532 | 67 | 152 | 2.0 | 6.0 | 0.00 | 0.00 | 0.00 | 41 | 1017.5 |
| 20260504191534 | 68 | 158 | 5.0 | 8.0 | 0.00 | 0.00 | 0.00 | 40 | 1017.5 |
| 20260504190534 | 68 | 160 | 2.0 | 4.0 | 0.00 | 0.00 | 0.00 | 39 | 1017.5 |
| 20260504185524 | 68 | 162 | 1.0 | 2.0 | 0.00 | 0.00 | 0.00 | 39 | 1017.4 |
| 20260504184525 | 69 | 147 | 1.0 | 3.0 | 0.00 | 0.00 | 0.00 | 38 | 1017.4 |
| 20260504183540 | 69 | 160 | 1.0 | 3.0 | 0.00 | 0.00 | 0.00 | 37 | 1017.4 |
| 20260504182521 | 71 | 224 | 0.0 | 1.0 | 0.00 | 0.00 | 0.00 | 36 | 1017.2 |
| 20260504181518 | 72 | 228 | 2.0 | 6.0 | 0.00 | 0.00 | 0.00 | 32 | 1017.1 |
| 20260504180532 | 72 | 183 | 3.0 | 7.0 | 0.00 | 0.00 | 0.00 | 31 | 1017.0 |
| 20260504175518 | 73 | 220 | 3.0 | 10.0 | 0.00 | 0.00 | 0.00 | 31 | 1016.9 |
| 20260504174532 | 74 | 233 | 4.0 | 8.0 | 0.00 | 0.00 | 0.00 | 29 | 1016.9 |
| 20260504173529 | 74 | 193 | 3.0 | 7.0 | 0.00 | 0.00 | 0.00 | 30 | 1016.7 |
| 20260504172528 | 74 | 172 | 4.0 | 7.0 | 0.00 | 0.00 | 0.00 | 30 | 1016.7 |
| 20260504171533 | 75 | 295 | 1.0 | 2.0 | 0.00 | 0.00 | 0.00 | 31 | 1016.7 |
| 20260504170533 | 75 | 253 | 1.0 | 2.0 | 0.00 | 0.00 | 0.00 | 29 | 1016.5 |
| 20260504150541 | 77 | 161 | 2.0 | 4.0 | 0.00 | 0.00 | 0.00 | 23 | 1016.5 |
| 20260504140606 | 77 | 161 | 5.0 | 10.0 | 0.00 | 0.00 | 0.00 | 22 | 1016.9 |
| 20260504130533 | 78 | 122 | 5.0 | 14.0 | 0.00 | 0.00 | 0.00 | 22 | 1017.2 |
| 20260504110529 | 74 | 53 | 1.0 | 2.0 | 0.00 | 0.00 | 0.00 | 36 | 1018.1 |
| 20260504100526 | 70 | 35 | 2.0 | 3.0 | 0.00 | 0.00 | 0.00 | 41 | 1019.2 |